Weather in Azigulovo

Russia / Sverdlovsk Oblast     56°32′03″N   58°17′22″E
temp.,
°C
wind,
m/s
gust,
m/s
humid.,
%
clouds,
%
prec.,
mm/h
press.,
hPa
HPBL,
m
20 april, tue
tue2023:000e11450 0.0 103414
02:000s11450 0.0 103415
05:00−1wsw114823 0.0 103513
08:000wnw23435 0.0 1035250
11:00+4nw34365 0.0 10341100
14:00+6nw45325 0.0 10331400
17:00+7nnw55320 0.0 10321410
20:00+5nw33470 0.0 103148
21 april, wed
wed2123:00+2nw11550 0.0 103210
02:00+1nw11625 0.0 103210
05:00+1nnw11640 0.0 103310
08:00+3w11560 0.0 1033136
11:00+6wnw11440 0.0 1033603
14:00+9se22375 0.0 1031949
17:00+11sse3335100 0.0 10311116
20:00+9s224675 0.0 103121
22 april, thu
thu2223:00+6ese3352100 0.0 103130
02:00+5ese356048 0.0 103182
05:00+4sse3367100 0.0 103228
08:00+5se2563100 0.0 1032166
11:00+8s5947100 0.0 1032706
14:00+11s7935100 0.0 10311432
17:00+12s793179 0.0 10301756
20:00+9ssw344686 0.0 103055
23 april, fri
fri2323:00+6sw1160100 0.0 103113
02:00+5w1178100 0.0 103110
05:00+5se3582100 0.0 1031224
08:00+5sse5988100 0.7 1031786
11:00+5s4794100 1.4 1031737
14:00+5s4590100 0.6 1030760
17:00+5ssw3693100 0.8 1030640
20:00+6nne1189100 0.0 103018
24 april, sat
sat2423:00+5ene2392100 0.0 102962
02:00+5ene2290100 0.0 102736
05:00+5ese2491100 0.0 102593
08:00+5ese2597100 1.3 1024149
11:00+6se4795100 1.7 1023301
14:00+8se6875100 0.3 1021992
17:00+8se7980100 0.7 10201108
20:00+6se5790100 0.6 1019885